<?xml version="1.0" encoding="utf-8"?>
<gpx xmlns:xsi="http://www.w3.org/2001/XMLSchema-instance" xmlns:xsd="http://www.w3.org/2001/XMLSchema" version="1.1" creator="Shapelink.com" xmlns="http://www.topografix.com/GPX/1/1" xmlns:gpxtpx="http://www.garmin.com/xmlschemas/TrackPointExtension/v1">
  <metadata>
    <name>Kører 3.47 km, 2016-07-27</name>
    <desc></desc>
    <author><name>Patrik Johansson</name></author> 
    <time>1970-01-01T01:00:00Z</time>
  </metadata>
  <trk>
    <name>Kører 3.47 km, 2016-07-27</name>
    <trkseg>
      <trkpt lat="59.017859" lon="18.153094">
        <ele>25</ele>
        <time>1970-01-01T01:00:00Z</time>
      </trkpt>
      <trkpt lat="59.017739" lon="18.153068">
        <ele>25</ele>
        <time>1970-01-01T01:00:00Z</time>
      </trkpt>
      <trkpt lat="59.017637" lon="18.153042">
        <ele>25</ele>
        <time>1970-01-01T01:00:00Z</time>
      </trkpt>
      <trkpt lat="59.017531" lon="18.153096">
        <ele>25</ele>
        <time>1970-01-01T01:00:00Z</time>
      </trkpt>
      <trkpt lat="59.017477" lon="18.153243">
        <ele>25</ele>
        <time>1970-01-01T01:00:00Z</time>
      </trkpt>
      <trkpt lat="59.017473" lon="18.153463">
        <ele>25</ele>
        <time>1970-01-01T01:00:00Z</time>
      </trkpt>
      <trkpt lat="59.017528" lon="18.153609">
        <ele>25</ele>
        <time>1970-01-01T01:00:00Z</time>
      </trkpt>
      <trkpt lat="59.017579" lon="18.153784">
        <ele>25</ele>
        <time>1970-01-01T01:00:00Z</time>
      </trkpt>
      <trkpt lat="59.017549" lon="18.153959">
        <ele>25.0909</ele>
        <time>1970-01-01T01:00:00Z</time>
      </trkpt>
      <trkpt lat="59.017577" lon="18.154166">
        <ele>25.1818</ele>
        <time>1970-01-01T01:00:00Z</time>
      </trkpt>
      <trkpt lat="59.017524" lon="18.154365">
        <ele>25.2727</ele>
        <time>1970-01-01T01:00:00Z</time>
      </trkpt>
      <trkpt lat="59.017437" lon="18.154474">
        <ele>25.1818</ele>
        <time>1970-01-01T01:00:00Z</time>
      </trkpt>
      <trkpt lat="59.017454" lon="18.154672">
        <ele>25.0909</ele>
        <time>1970-01-01T01:00:00Z</time>
      </trkpt>
      <trkpt lat="59.017378" lon="18.154824">
        <ele>25</ele>
        <time>1970-01-01T01:00:00Z</time>
      </trkpt>
      <trkpt lat="59.017287" lon="18.154814">
        <ele>24.6364</ele>
        <time>1970-01-01T01:00:00Z</time>
      </trkpt>
      <trkpt lat="59.017188" lon="18.154805">
        <ele>24.2727</ele>
        <time>1970-01-01T01:00:00Z</time>
      </trkpt>
      <trkpt lat="59.017083" lon="18.154792">
        <ele>23.9091</ele>
        <time>1970-01-01T01:00:00Z</time>
      </trkpt>
      <trkpt lat="59.016977" lon="18.154789">
        <ele>23.5455</ele>
        <time>1970-01-01T01:00:00Z</time>
      </trkpt>
      <trkpt lat="59.016862" lon="18.15473">
        <ele>23.1818</ele>
        <time>1970-01-01T01:00:00Z</time>
      </trkpt>
      <trkpt lat="59.016749" lon="18.154667">
        <ele>22.7273</ele>
        <time>1970-01-01T01:00:00Z</time>
      </trkpt>
      <trkpt lat="59.016657" lon="18.15463">
        <ele>22.2727</ele>
        <time>1970-01-01T01:00:00Z</time>
      </trkpt>
      <trkpt lat="59.016546" lon="18.154573">
        <ele>21.8182</ele>
        <time>1970-01-01T01:00:00Z</time>
      </trkpt>
      <trkpt lat="59.016447" lon="18.154543">
        <ele>21.5455</ele>
        <time>1970-01-01T01:00:00Z</time>
      </trkpt>
      <trkpt lat="59.016337" lon="18.154467">
        <ele>21.2727</ele>
        <time>1970-01-01T01:00:00Z</time>
      </trkpt>
      <trkpt lat="59.01623" lon="18.154433">
        <ele>21</ele>
        <time>1970-01-01T01:00:00Z</time>
      </trkpt>
      <trkpt lat="59.016117" lon="18.154408">
        <ele>21</ele>
        <time>1970-01-01T01:00:00Z</time>
      </trkpt>
      <trkpt lat="59.016023" lon="18.154391">
        <ele>21</ele>
        <time>1970-01-01T01:00:00Z</time>
      </trkpt>
      <trkpt lat="59.015931" lon="18.154388">
        <ele>21</ele>
        <time>1970-01-01T01:00:00Z</time>
      </trkpt>
      <trkpt lat="59.01584" lon="18.154389">
        <ele>20.9091</ele>
        <time>1970-01-01T01:00:00Z</time>
      </trkpt>
      <trkpt lat="59.015747" lon="18.154414">
        <ele>20.8182</ele>
        <time>1970-01-01T01:00:00Z</time>
      </trkpt>
      <trkpt lat="59.015657" lon="18.154455">
        <ele>20.7273</ele>
        <time>1970-01-01T01:00:00Z</time>
      </trkpt>
      <trkpt lat="59.015549" lon="18.154517">
        <ele>20.6364</ele>
        <time>1970-01-01T01:00:00Z</time>
      </trkpt>
      <trkpt lat="59.015464" lon="18.154584">
        <ele>20.5455</ele>
        <time>1970-01-01T01:00:00Z</time>
      </trkpt>
      <trkpt lat="59.015379" lon="18.154653">
        <ele>20.4545</ele>
        <time>1970-01-01T01:00:00Z</time>
      </trkpt>
      <trkpt lat="59.015287" lon="18.154694">
        <ele>20.3636</ele>
        <time>1970-01-01T01:00:00Z</time>
      </trkpt>
      <trkpt lat="59.015187" lon="18.154726">
        <ele>20.2727</ele>
        <time>1970-01-01T01:00:00Z</time>
      </trkpt>
      <trkpt lat="59.01509" lon="18.154801">
        <ele>20.0909</ele>
        <time>1970-01-01T01:00:00Z</time>
      </trkpt>
      <trkpt lat="59.014992" lon="18.154886">
        <ele>19.9091</ele>
        <time>1970-01-01T01:00:00Z</time>
      </trkpt>
      <trkpt lat="59.014889" lon="18.154967">
        <ele>19.7273</ele>
        <time>1970-01-01T01:00:00Z</time>
      </trkpt>
      <trkpt lat="59.014783" lon="18.155069">
        <ele>19.6364</ele>
        <time>1970-01-01T01:00:00Z</time>
      </trkpt>
      <trkpt lat="59.01467" lon="18.155121">
        <ele>19.4545</ele>
        <time>1970-01-01T01:00:00Z</time>
      </trkpt>
      <trkpt lat="59.01457" lon="18.155106">
        <ele>19.2727</ele>
        <time>1970-01-01T01:00:00Z</time>
      </trkpt>
      <trkpt lat="59.014471" lon="18.155049">
        <ele>19.0909</ele>
        <time>1970-01-01T01:00:00Z</time>
      </trkpt>
      <trkpt lat="59.014382" lon="18.15496">
        <ele>18.9091</ele>
        <time>1970-01-01T01:00:00Z</time>
      </trkpt>
      <trkpt lat="59.01431" lon="18.154851">
        <ele>18.7273</ele>
        <time>1970-01-01T01:00:00Z</time>
      </trkpt>
      <trkpt lat="59.014259" lon="18.15464">
        <ele>18.5455</ele>
        <time>1970-01-01T01:00:00Z</time>
      </trkpt>
      <trkpt lat="59.014242" lon="18.154461">
        <ele>18.3636</ele>
        <time>1970-01-01T01:00:00Z</time>
      </trkpt>
      <trkpt lat="59.014234" lon="18.15428">
        <ele>18.2727</ele>
        <time>1970-01-01T01:00:00Z</time>
      </trkpt>
      <trkpt lat="59.014216" lon="18.154098">
        <ele>18.1818</ele>
        <time>1970-01-01T01:00:00Z</time>
      </trkpt>
      <trkpt lat="59.014213" lon="18.15391">
        <ele>18.0909</ele>
        <time>1970-01-01T01:00:00Z</time>
      </trkpt>
      <trkpt lat="59.014209" lon="18.15372">
        <ele>18.4545</ele>
        <time>1970-01-01T01:00:00Z</time>
      </trkpt>
      <trkpt lat="59.014192" lon="18.153538">
        <ele>18.9091</ele>
        <time>1970-01-01T01:00:00Z</time>
      </trkpt>
      <trkpt lat="59.014168" lon="18.153363">
        <ele>19.3636</ele>
        <time>1970-01-01T01:00:00Z</time>
      </trkpt>
      <trkpt lat="59.014146" lon="18.153193">
        <ele>19.5455</ele>
        <time>1970-01-01T01:00:00Z</time>
      </trkpt>
      <trkpt lat="59.014097" lon="18.152992">
        <ele>19.7273</ele>
        <time>1970-01-01T01:00:00Z</time>
      </trkpt>
      <trkpt lat="59.014018" lon="18.152851">
        <ele>19.9091</ele>
        <time>1970-01-01T01:00:00Z</time>
      </trkpt>
      <trkpt lat="59.013936" lon="18.152764">
        <ele>20.0909</ele>
        <time>1970-01-01T01:00:00Z</time>
      </trkpt>
      <trkpt lat="59.013835" lon="18.152646">
        <ele>20.2727</ele>
        <time>1970-01-01T01:00:00Z</time>
      </trkpt>
      <trkpt lat="59.013737" lon="18.152517">
        <ele>20.4545</ele>
        <time>1970-01-01T01:00:00Z</time>
      </trkpt>
      <trkpt lat="59.013655" lon="18.152442">
        <ele>20.6364</ele>
        <time>1970-01-01T01:00:00Z</time>
      </trkpt>
      <trkpt lat="59.013548" lon="18.152331">
        <ele>20.8182</ele>
        <time>1970-01-01T01:00:00Z</time>
      </trkpt>
      <trkpt lat="59.013463" lon="18.152253">
        <ele>20.5455</ele>
        <time>1970-01-01T01:00:00Z</time>
      </trkpt>
      <trkpt lat="59.013386" lon="18.152148">
        <ele>20.2727</ele>
        <time>1970-01-01T01:00:00Z</time>
      </trkpt>
      <trkpt lat="59.013319" lon="18.152028">
        <ele>19.7273</ele>
        <time>1970-01-01T01:00:00Z</time>
      </trkpt>
      <trkpt lat="59.013249" lon="18.151916">
        <ele>19.4545</ele>
        <time>1970-01-01T01:00:00Z</time>
      </trkpt>
      <trkpt lat="59.013164" lon="18.151807">
        <ele>19.4545</ele>
        <time>1970-01-01T01:00:00Z</time>
      </trkpt>
      <trkpt lat="59.013071" lon="18.151717">
        <ele>19.4545</ele>
        <time>1970-01-01T01:00:00Z</time>
      </trkpt>
      <trkpt lat="59.012998" lon="18.151609">
        <ele>19.4545</ele>
        <time>1970-01-01T01:00:00Z</time>
      </trkpt>
      <trkpt lat="59.012917" lon="18.151498">
        <ele>19.4545</ele>
        <time>1970-01-01T01:00:00Z</time>
      </trkpt>
      <trkpt lat="59.012845" lon="18.151379">
        <ele>19.4545</ele>
        <time>1970-01-01T01:00:00Z</time>
      </trkpt>
      <trkpt lat="59.012765" lon="18.151268">
        <ele>19.4545</ele>
        <time>1970-01-01T01:00:00Z</time>
      </trkpt>
      <trkpt lat="59.012684" lon="18.151168">
        <ele>19.4545</ele>
        <time>1970-01-01T01:00:00Z</time>
      </trkpt>
      <trkpt lat="59.012592" lon="18.151022">
        <ele>19.6364</ele>
        <time>1970-01-01T01:00:00Z</time>
      </trkpt>
      <trkpt lat="59.012523" lon="18.15091">
        <ele>19.8182</ele>
        <time>1970-01-01T01:00:00Z</time>
      </trkpt>
      <trkpt lat="59.012434" lon="18.150766">
        <ele>20.2727</ele>
        <time>1970-01-01T01:00:00Z</time>
      </trkpt>
      <trkpt lat="59.012368" lon="18.150641">
        <ele>20.7273</ele>
        <time>1970-01-01T01:00:00Z</time>
      </trkpt>
      <trkpt lat="59.012301" lon="18.150515">
        <ele>20.9091</ele>
        <time>1970-01-01T01:00:00Z</time>
      </trkpt>
      <trkpt lat="59.012223" lon="18.150391">
        <ele>21.0909</ele>
        <time>1970-01-01T01:00:00Z</time>
      </trkpt>
      <trkpt lat="59.012156" lon="18.150265">
        <ele>21</ele>
        <time>1970-01-01T01:00:00Z</time>
      </trkpt>
      <trkpt lat="59.012094" lon="18.150134">
        <ele>20.9091</ele>
        <time>1970-01-01T01:00:00Z</time>
      </trkpt>
      <trkpt lat="59.01204" lon="18.149961">
        <ele>20.8182</ele>
        <time>1970-01-01T01:00:00Z</time>
      </trkpt>
      <trkpt lat="59.011949" lon="18.149822">
        <ele>20.7273</ele>
        <time>1970-01-01T01:00:00Z</time>
      </trkpt>
      <trkpt lat="59.011874" lon="18.149711">
        <ele>20.6364</ele>
        <time>1970-01-01T01:00:00Z</time>
      </trkpt>
      <trkpt lat="59.011814" lon="18.149572">
        <ele>20.3636</ele>
        <time>1970-01-01T01:00:00Z</time>
      </trkpt>
      <trkpt lat="59.011744" lon="18.149446">
        <ele>19.9091</ele>
        <time>1970-01-01T01:00:00Z</time>
      </trkpt>
      <trkpt lat="59.011664" lon="18.149283">
        <ele>19.4545</ele>
        <time>1970-01-01T01:00:00Z</time>
      </trkpt>
      <trkpt lat="59.011582" lon="18.149115">
        <ele>18.5455</ele>
        <time>1970-01-01T01:00:00Z</time>
      </trkpt>
      <trkpt lat="59.01151" lon="18.148943">
        <ele>17.6364</ele>
        <time>1970-01-01T01:00:00Z</time>
      </trkpt>
      <trkpt lat="59.011433" lon="18.148829">
        <ele>16.7273</ele>
        <time>1970-01-01T01:00:00Z</time>
      </trkpt>
      <trkpt lat="59.011358" lon="18.148713">
        <ele>16.0909</ele>
        <time>1970-01-01T01:00:00Z</time>
      </trkpt>
      <trkpt lat="59.01129" lon="18.148585">
        <ele>15.4545</ele>
        <time>1970-01-01T01:00:00Z</time>
      </trkpt>
      <trkpt lat="59.011218" lon="18.148471">
        <ele>14.8182</ele>
        <time>1970-01-01T01:00:00Z</time>
      </trkpt>
      <trkpt lat="59.011137" lon="18.148356">
        <ele>14.3636</ele>
        <time>1970-01-01T01:00:00Z</time>
      </trkpt>
      <trkpt lat="59.011039" lon="18.14827">
        <ele>13.9091</ele>
        <time>1970-01-01T01:00:00Z</time>
      </trkpt>
      <trkpt lat="59.010938" lon="18.148197">
        <ele>13.4545</ele>
        <time>1970-01-01T01:00:00Z</time>
      </trkpt>
      <trkpt lat="59.010857" lon="18.148103">
        <ele>13.1818</ele>
        <time>1970-01-01T01:00:00Z</time>
      </trkpt>
      <trkpt lat="59.010773" lon="18.148007">
        <ele>12.6364</ele>
        <time>1970-01-01T01:00:00Z</time>
      </trkpt>
      <trkpt lat="59.010687" lon="18.147893">
        <ele>12.5455</ele>
        <time>1970-01-01T01:00:00Z</time>
      </trkpt>
      <trkpt lat="59.010614" lon="18.147749">
        <ele>12.3636</ele>
        <time>1970-01-01T01:00:00Z</time>
      </trkpt>
      <trkpt lat="59.010551" lon="18.147613">
        <ele>12.1818</ele>
        <time>1970-01-01T01:00:00Z</time>
      </trkpt>
      <trkpt lat="59.010479" lon="18.147486">
        <ele>12</ele>
        <time>1970-01-01T01:00:00Z</time>
      </trkpt>
      <trkpt lat="59.010397" lon="18.147373">
        <ele>11.8182</ele>
        <time>1970-01-01T01:00:00Z</time>
      </trkpt>
      <trkpt lat="59.010296" lon="18.14725">
        <ele>11.6364</ele>
        <time>1970-01-01T01:00:00Z</time>
      </trkpt>
      <trkpt lat="59.01022" lon="18.147142">
        <ele>11.2727</ele>
        <time>1970-01-01T01:00:00Z</time>
      </trkpt>
      <trkpt lat="59.010146" lon="18.14703">
        <ele>10.8182</ele>
        <time>1970-01-01T01:00:00Z</time>
      </trkpt>
      <trkpt lat="59.010071" lon="18.146922">
        <ele>10.3636</ele>
        <time>1970-01-01T01:00:00Z</time>
      </trkpt>
      <trkpt lat="59.009983" lon="18.146764">
        <ele>9.90909</ele>
        <time>1970-01-01T01:00:00Z</time>
      </trkpt>
      <trkpt lat="59.009972" lon="18.146541">
        <ele>9.72727</ele>
        <time>1970-01-01T01:00:00Z</time>
      </trkpt>
      <trkpt lat="59.010041" lon="18.146358">
        <ele>9.81818</ele>
        <time>1970-01-01T01:00:00Z</time>
      </trkpt>
      <trkpt lat="59.010128" lon="18.146187">
        <ele>10</ele>
        <time>1970-01-01T01:00:00Z</time>
      </trkpt>
      <trkpt lat="59.010213" lon="18.146098">
        <ele>10.1818</ele>
        <time>1970-01-01T01:00:00Z</time>
      </trkpt>
      <trkpt lat="59.0103" lon="18.146021">
        <ele>10.3636</ele>
        <time>1970-01-01T01:00:00Z</time>
      </trkpt>
      <trkpt lat="59.010392" lon="18.145953">
        <ele>10.5455</ele>
        <time>1970-01-01T01:00:00Z</time>
      </trkpt>
      <trkpt lat="59.010489" lon="18.145914">
        <ele>10.7273</ele>
        <time>1970-01-01T01:00:00Z</time>
      </trkpt>
      <trkpt lat="59.010581" lon="18.145884">
        <ele>10.7273</ele>
        <time>1970-01-01T01:00:00Z</time>
      </trkpt>
      <trkpt lat="59.010665" lon="18.145816">
        <ele>10.8182</ele>
        <time>1970-01-01T01:00:00Z</time>
      </trkpt>
      <trkpt lat="59.010755" lon="18.145755">
        <ele>10.9091</ele>
        <time>1970-01-01T01:00:00Z</time>
      </trkpt>
      <trkpt lat="59.010836" lon="18.145658">
        <ele>11</ele>
        <time>1970-01-01T01:00:00Z</time>
      </trkpt>
      <trkpt lat="59.010916" lon="18.145544">
        <ele>11.6364</ele>
        <time>1970-01-01T01:00:00Z</time>
      </trkpt>
      <trkpt lat="59.011003" lon="18.145439">
        <ele>12</ele>
        <time>1970-01-01T01:00:00Z</time>
      </trkpt>
      <trkpt lat="59.011077" lon="18.145339">
        <ele>12.3636</ele>
        <time>1970-01-01T01:00:00Z</time>
      </trkpt>
      <trkpt lat="59.011145" lon="18.145216">
        <ele>12.7273</ele>
        <time>1970-01-01T01:00:00Z</time>
      </trkpt>
      <trkpt lat="59.011216" lon="18.145079">
        <ele>13.0909</ele>
        <time>1970-01-01T01:00:00Z</time>
      </trkpt>
      <trkpt lat="59.011297" lon="18.144954">
        <ele>13.4545</ele>
        <time>1970-01-01T01:00:00Z</time>
      </trkpt>
      <trkpt lat="59.011389" lon="18.14485">
        <ele>13.0909</ele>
        <time>1970-01-01T01:00:00Z</time>
      </trkpt>
      <trkpt lat="59.011485" lon="18.144761">
        <ele>12.9091</ele>
        <time>1970-01-01T01:00:00Z</time>
      </trkpt>
      <trkpt lat="59.011588" lon="18.144721">
        <ele>12.7273</ele>
        <time>1970-01-01T01:00:00Z</time>
      </trkpt>
      <trkpt lat="59.011708" lon="18.144729">
        <ele>12.9091</ele>
        <time>1970-01-01T01:00:00Z</time>
      </trkpt>
      <trkpt lat="59.01182" lon="18.144708">
        <ele>13.0909</ele>
        <time>1970-01-01T01:00:00Z</time>
      </trkpt>
      <trkpt lat="59.011913" lon="18.144664">
        <ele>12.7273</ele>
        <time>1970-01-01T01:00:00Z</time>
      </trkpt>
      <trkpt lat="59.012004" lon="18.144576">
        <ele>12.3636</ele>
        <time>1970-01-01T01:00:00Z</time>
      </trkpt>
      <trkpt lat="59.012078" lon="18.144475">
        <ele>12</ele>
        <time>1970-01-01T01:00:00Z</time>
      </trkpt>
      <trkpt lat="59.012179" lon="18.144357">
        <ele>11.6364</ele>
        <time>1970-01-01T01:00:00Z</time>
      </trkpt>
      <trkpt lat="59.012278" lon="18.144311">
        <ele>11.2727</ele>
        <time>1970-01-01T01:00:00Z</time>
      </trkpt>
      <trkpt lat="59.012386" lon="18.144301">
        <ele>10.9091</ele>
        <time>1970-01-01T01:00:00Z</time>
      </trkpt>
      <trkpt lat="59.012476" lon="18.144266">
        <ele>11.2727</ele>
        <time>1970-01-01T01:00:00Z</time>
      </trkpt>
      <trkpt lat="59.012572" lon="18.14424">
        <ele>12.4545</ele>
        <time>1970-01-01T01:00:00Z</time>
      </trkpt>
      <trkpt lat="59.012664" lon="18.144212">
        <ele>13.6364</ele>
        <time>1970-01-01T01:00:00Z</time>
      </trkpt>
      <trkpt lat="59.012753" lon="18.144177">
        <ele>13.5455</ele>
        <time>1970-01-01T01:00:00Z</time>
      </trkpt>
      <trkpt lat="59.012865" lon="18.144203">
        <ele>13.4545</ele>
        <time>1970-01-01T01:00:00Z</time>
      </trkpt>
      <trkpt lat="59.012968" lon="18.144178">
        <ele>13.3636</ele>
        <time>1970-01-01T01:00:00Z</time>
      </trkpt>
      <trkpt lat="59.013063" lon="18.144129">
        <ele>13.2727</ele>
        <time>1970-01-01T01:00:00Z</time>
      </trkpt>
      <trkpt lat="59.013147" lon="18.144">
        <ele>13.1818</ele>
        <time>1970-01-01T01:00:00Z</time>
      </trkpt>
      <trkpt lat="59.013254" lon="18.143884">
        <ele>13.0909</ele>
        <time>1970-01-01T01:00:00Z</time>
      </trkpt>
      <trkpt lat="59.013345" lon="18.143813">
        <ele>13.5455</ele>
        <time>1970-01-01T01:00:00Z</time>
      </trkpt>
      <trkpt lat="59.01343" lon="18.143719">
        <ele>14</ele>
        <time>1970-01-01T01:00:00Z</time>
      </trkpt>
      <trkpt lat="59.013526" lon="18.143654">
        <ele>14.4545</ele>
        <time>1970-01-01T01:00:00Z</time>
      </trkpt>
      <trkpt lat="59.013614" lon="18.143614">
        <ele>14.0909</ele>
        <time>1970-01-01T01:00:00Z</time>
      </trkpt>
      <trkpt lat="59.013723" lon="18.143573">
        <ele>13.7273</ele>
        <time>1970-01-01T01:00:00Z</time>
      </trkpt>
      <trkpt lat="59.013814" lon="18.143535">
        <ele>14.2727</ele>
        <time>1970-01-01T01:00:00Z</time>
      </trkpt>
      <trkpt lat="59.013901" lon="18.143484">
        <ele>14.8182</ele>
        <time>1970-01-01T01:00:00Z</time>
      </trkpt>
      <trkpt lat="59.013996" lon="18.14344">
        <ele>15.3636</ele>
        <time>1970-01-01T01:00:00Z</time>
      </trkpt>
      <trkpt lat="59.014101" lon="18.143329">
        <ele>15.9091</ele>
        <time>1970-01-01T01:00:00Z</time>
      </trkpt>
      <trkpt lat="59.014229" lon="18.143327">
        <ele>16.6364</ele>
        <time>1970-01-01T01:00:00Z</time>
      </trkpt>
      <trkpt lat="59.014331" lon="18.143282">
        <ele>16.9091</ele>
        <time>1970-01-01T01:00:00Z</time>
      </trkpt>
      <trkpt lat="59.014411" lon="18.143162">
        <ele>16.6364</ele>
        <time>1970-01-01T01:00:00Z</time>
      </trkpt>
      <trkpt lat="59.014498" lon="18.143097">
        <ele>16.3636</ele>
        <time>1970-01-01T01:00:00Z</time>
      </trkpt>
      <trkpt lat="59.014583" lon="18.143033">
        <ele>16.0909</ele>
        <time>1970-01-01T01:00:00Z</time>
      </trkpt>
      <trkpt lat="59.014692" lon="18.142944">
        <ele>15.8182</ele>
        <time>1970-01-01T01:00:00Z</time>
      </trkpt>
      <trkpt lat="59.014793" lon="18.14292">
        <ele>15.5455</ele>
        <time>1970-01-01T01:00:00Z</time>
      </trkpt>
      <trkpt lat="59.014906" lon="18.142873">
        <ele>15.2727</ele>
        <time>1970-01-01T01:00:00Z</time>
      </trkpt>
      <trkpt lat="59.015015" lon="18.142841">
        <ele>15.0909</ele>
        <time>1970-01-01T01:00:00Z</time>
      </trkpt>
      <trkpt lat="59.015104" lon="18.14279">
        <ele>14.9091</ele>
        <time>1970-01-01T01:00:00Z</time>
      </trkpt>
      <trkpt lat="59.015211" lon="18.142702">
        <ele>14.7273</ele>
        <time>1970-01-01T01:00:00Z</time>
      </trkpt>
      <trkpt lat="59.015296" lon="18.142633">
        <ele>14</ele>
        <time>1970-01-01T01:00:00Z</time>
      </trkpt>
      <trkpt lat="59.015385" lon="18.142536">
        <ele>13.7273</ele>
        <time>1970-01-01T01:00:00Z</time>
      </trkpt>
      <trkpt lat="59.01547" lon="18.142449">
        <ele>13.4545</ele>
        <time>1970-01-01T01:00:00Z</time>
      </trkpt>
      <trkpt lat="59.015541" lon="18.142331">
        <ele>13.1818</ele>
        <time>1970-01-01T01:00:00Z</time>
      </trkpt>
      <trkpt lat="59.015612" lon="18.142195">
        <ele>12.9091</ele>
        <time>1970-01-01T01:00:00Z</time>
      </trkpt>
      <trkpt lat="59.015678" lon="18.142049">
        <ele>12.6364</ele>
        <time>1970-01-01T01:00:00Z</time>
      </trkpt>
      <trkpt lat="59.015761" lon="18.141949">
        <ele>12.6364</ele>
        <time>1970-01-01T01:00:00Z</time>
      </trkpt>
      <trkpt lat="59.015859" lon="18.141853">
        <ele>12.6364</ele>
        <time>1970-01-01T01:00:00Z</time>
      </trkpt>
      <trkpt lat="59.015957" lon="18.141751">
        <ele>12.5455</ele>
        <time>1970-01-01T01:00:00Z</time>
      </trkpt>
      <trkpt lat="59.016055" lon="18.141659">
        <ele>12.4545</ele>
        <time>1970-01-01T01:00:00Z</time>
      </trkpt>
      <trkpt lat="59.016157" lon="18.141608">
        <ele>12.3636</ele>
        <time>1970-01-01T01:00:00Z</time>
      </trkpt>
      <trkpt lat="59.016271" lon="18.141558">
        <ele>12.6364</ele>
        <time>1970-01-01T01:00:00Z</time>
      </trkpt>
      <trkpt lat="59.016369" lon="18.141499">
        <ele>12.9091</ele>
        <time>1970-01-01T01:00:00Z</time>
      </trkpt>
      <trkpt lat="59.016467" lon="18.141433">
        <ele>13</ele>
        <time>1970-01-01T01:00:00Z</time>
      </trkpt>
      <trkpt lat="59.016557" lon="18.141399">
        <ele>13.0909</ele>
        <time>1970-01-01T01:00:00Z</time>
      </trkpt>
      <trkpt lat="59.016664" lon="18.14141">
        <ele>13.1818</ele>
        <time>1970-01-01T01:00:00Z</time>
      </trkpt>
      <trkpt lat="59.016769" lon="18.141411">
        <ele>13.2727</ele>
        <time>1970-01-01T01:00:00Z</time>
      </trkpt>
      <trkpt lat="59.016857" lon="18.141351">
        <ele>13.0909</ele>
        <time>1970-01-01T01:00:00Z</time>
      </trkpt>
      <trkpt lat="59.016962" lon="18.141247">
        <ele>12.9091</ele>
        <time>1970-01-01T01:00:00Z</time>
      </trkpt>
      <trkpt lat="59.017032" lon="18.141133">
        <ele>12.7273</ele>
        <time>1970-01-01T01:00:00Z</time>
      </trkpt>
      <trkpt lat="59.017107" lon="18.141027">
        <ele>12.5455</ele>
        <time>1970-01-01T01:00:00Z</time>
      </trkpt>
      <trkpt lat="59.017188" lon="18.140937">
        <ele>12.3636</ele>
        <time>1970-01-01T01:00:00Z</time>
      </trkpt>
      <trkpt lat="59.017285" lon="18.140867">
        <ele>12.1818</ele>
        <time>1970-01-01T01:00:00Z</time>
      </trkpt>
      <trkpt lat="59.017399" lon="18.140842">
        <ele>12</ele>
        <time>1970-01-01T01:00:00Z</time>
      </trkpt>
      <trkpt lat="59.017488" lon="18.140777">
        <ele>11.9091</ele>
        <time>1970-01-01T01:00:00Z</time>
      </trkpt>
      <trkpt lat="59.017579" lon="18.140634">
        <ele>11.8182</ele>
        <time>1970-01-01T01:00:00Z</time>
      </trkpt>
      <trkpt lat="59.017662" lon="18.14054">
        <ele>11.7273</ele>
        <time>1970-01-01T01:00:00Z</time>
      </trkpt>
      <trkpt lat="59.01777" lon="18.140506">
        <ele>11.6364</ele>
        <time>1970-01-01T01:00:00Z</time>
      </trkpt>
      <trkpt lat="59.017868" lon="18.140607">
        <ele>11.5455</ele>
        <time>1970-01-01T01:00:00Z</time>
      </trkpt>
      <trkpt lat="59.017981" lon="18.140691">
        <ele>11.4545</ele>
        <time>1970-01-01T01:00:00Z</time>
      </trkpt>
      <trkpt lat="59.01807" lon="18.140729">
        <ele>11.3636</ele>
        <time>1970-01-01T01:00:00Z</time>
      </trkpt>
      <trkpt lat="59.018159" lon="18.140781">
        <ele>11.2727</ele>
        <time>1970-01-01T01:00:00Z</time>
      </trkpt>
      <trkpt lat="59.018271" lon="18.140852">
        <ele>11.1818</ele>
        <time>1970-01-01T01:00:00Z</time>
      </trkpt>
      <trkpt lat="59.018382" lon="18.140919">
        <ele>11.0909</ele>
        <time>1970-01-01T01:00:00Z</time>
      </trkpt>
      <trkpt lat="59.018467" lon="18.140981">
        <ele>10.8182</ele>
        <time>1970-01-01T01:00:00Z</time>
      </trkpt>
      <trkpt lat="59.018567" lon="18.141067">
        <ele>10.6364</ele>
        <time>1970-01-01T01:00:00Z</time>
      </trkpt>
      <trkpt lat="59.018649" lon="18.141136">
        <ele>10.4545</ele>
        <time>1970-01-01T01:00:00Z</time>
      </trkpt>
      <trkpt lat="59.018761" lon="18.141213">
        <ele>10.2727</ele>
        <time>1970-01-01T01:00:00Z</time>
      </trkpt>
      <trkpt lat="59.018855" lon="18.141263">
        <ele>10.0909</ele>
        <time>1970-01-01T01:00:00Z</time>
      </trkpt>
      <trkpt lat="59.018943" lon="18.141333">
        <ele>9.90909</ele>
        <time>1970-01-01T01:00:00Z</time>
      </trkpt>
      <trkpt lat="59.019048" lon="18.141421">
        <ele>9.72727</ele>
        <time>1970-01-01T01:00:00Z</time>
      </trkpt>
      <trkpt lat="59.019162" lon="18.141503">
        <ele>9.54545</ele>
        <time>1970-01-01T01:00:00Z</time>
      </trkpt>
      <trkpt lat="59.019252" lon="18.141565">
        <ele>9.36364</ele>
        <time>1970-01-01T01:00:00Z</time>
      </trkpt>
      <trkpt lat="59.019341" lon="18.141627">
        <ele>9.18182</ele>
        <time>1970-01-01T01:00:00Z</time>
      </trkpt>
      <trkpt lat="59.019437" lon="18.141705">
        <ele>9</ele>
        <time>1970-01-01T01:00:00Z</time>
      </trkpt>
      <trkpt lat="59.019529" lon="18.141784">
        <ele>9</ele>
        <time>1970-01-01T01:00:00Z</time>
      </trkpt>
      <trkpt lat="59.01962" lon="18.141867">
        <ele>9</ele>
        <time>1970-01-01T01:00:00Z</time>
      </trkpt>
      <trkpt lat="59.019707" lon="18.141964">
        <ele>9</ele>
        <time>1970-01-01T01:00:00Z</time>
      </trkpt>
      <trkpt lat="59.019801" lon="18.1421">
        <ele>9</ele>
        <time>1970-01-01T01:00:00Z</time>
      </trkpt>
      <trkpt lat="59.019869" lon="18.142235">
        <ele>9</ele>
        <time>1970-01-01T01:00:00Z</time>
      </trkpt>
      <trkpt lat="59.019949" lon="18.142378">
        <ele>9.09091</ele>
        <time>1970-01-01T01:00:00Z</time>
      </trkpt>
      <trkpt lat="59.020028" lon="18.142504">
        <ele>9.18182</ele>
        <time>1970-01-01T01:00:00Z</time>
      </trkpt>
      <trkpt lat="59.020108" lon="18.142619">
        <ele>9.27273</ele>
        <time>1970-01-01T01:00:00Z</time>
      </trkpt>
      <trkpt lat="59.020167" lon="18.142772">
        <ele>9.36364</ele>
        <time>1970-01-01T01:00:00Z</time>
      </trkpt>
      <trkpt lat="59.020221" lon="18.142926">
        <ele>9.27273</ele>
        <time>1970-01-01T01:00:00Z</time>
      </trkpt>
      <trkpt lat="59.020269" lon="18.143087">
        <ele>9.27273</ele>
        <time>1970-01-01T01:00:00Z</time>
      </trkpt>
      <trkpt lat="59.020308" lon="18.143252">
        <ele>9.27273</ele>
        <time>1970-01-01T01:00:00Z</time>
      </trkpt>
      <trkpt lat="59.020348" lon="18.143421">
        <ele>9.27273</ele>
        <time>1970-01-01T01:00:00Z</time>
      </trkpt>
      <trkpt lat="59.020386" lon="18.143634">
        <ele>9.27273</ele>
        <time>1970-01-01T01:00:00Z</time>
      </trkpt>
      <trkpt lat="59.020445" lon="18.143817">
        <ele>9.45455</ele>
        <time>1970-01-01T01:00:00Z</time>
      </trkpt>
      <trkpt lat="59.020508" lon="18.143987">
        <ele>9.63636</ele>
        <time>1970-01-01T01:00:00Z</time>
      </trkpt>
      <trkpt lat="59.020566" lon="18.144146">
        <ele>9.72727</ele>
        <time>1970-01-01T01:00:00Z</time>
      </trkpt>
      <trkpt lat="59.020613" lon="18.14435">
        <ele>9.81818</ele>
        <time>1970-01-01T01:00:00Z</time>
      </trkpt>
      <trkpt lat="59.020658" lon="18.144545">
        <ele>9.90909</ele>
        <time>1970-01-01T01:00:00Z</time>
      </trkpt>
      <trkpt lat="59.020706" lon="18.144728">
        <ele>10.2727</ele>
        <time>1970-01-01T01:00:00Z</time>
      </trkpt>
      <trkpt lat="59.020756" lon="18.144916">
        <ele>10.8182</ele>
        <time>1970-01-01T01:00:00Z</time>
      </trkpt>
      <trkpt lat="59.020811" lon="18.145104">
        <ele>11.2727</ele>
        <time>1970-01-01T01:00:00Z</time>
      </trkpt>
      <trkpt lat="59.020854" lon="18.145315">
        <ele>11.7273</ele>
        <time>1970-01-01T01:00:00Z</time>
      </trkpt>
      <trkpt lat="59.020886" lon="18.145521">
        <ele>12.4545</ele>
        <time>1970-01-01T01:00:00Z</time>
      </trkpt>
      <trkpt lat="59.020926" lon="18.14573">
        <ele>13.1818</ele>
        <time>1970-01-01T01:00:00Z</time>
      </trkpt>
      <trkpt lat="59.020972" lon="18.145916">
        <ele>13.7273</ele>
        <time>1970-01-01T01:00:00Z</time>
      </trkpt>
      <trkpt lat="59.021028" lon="18.146113">
        <ele>15.0909</ele>
        <time>1970-01-01T01:00:00Z</time>
      </trkpt>
      <trkpt lat="59.021084" lon="18.146302">
        <ele>16.4545</ele>
        <time>1970-01-01T01:00:00Z</time>
      </trkpt>
      <trkpt lat="59.021126" lon="18.146491">
        <ele>18.0909</ele>
        <time>1970-01-01T01:00:00Z</time>
      </trkpt>
      <trkpt lat="59.021165" lon="18.146681">
        <ele>19.7273</ele>
        <time>1970-01-01T01:00:00Z</time>
      </trkpt>
      <trkpt lat="59.021204" lon="18.146862">
        <ele>21.0909</ele>
        <time>1970-01-01T01:00:00Z</time>
      </trkpt>
      <trkpt lat="59.021275" lon="18.147008">
        <ele>22.4545</ele>
        <time>1970-01-01T01:00:00Z</time>
      </trkpt>
      <trkpt lat="59.021357" lon="18.14711">
        <ele>23.8182</ele>
        <time>1970-01-01T01:00:00Z</time>
      </trkpt>
      <trkpt lat="59.021455" lon="18.147188">
        <ele>25.5455</ele>
        <time>1970-01-01T01:00:00Z</time>
      </trkpt>
      <trkpt lat="59.021512" lon="18.14733">
        <ele>27</ele>
        <time>1970-01-01T01:00:00Z</time>
      </trkpt>
      <trkpt lat="59.021551" lon="18.147533">
        <ele>28.4545</ele>
        <time>1970-01-01T01:00:00Z</time>
      </trkpt>
      <trkpt lat="59.021537" lon="18.147762">
        <ele>29.0909</ele>
        <time>1970-01-01T01:00:00Z</time>
      </trkpt>
      <trkpt lat="59.021477" lon="18.147962">
        <ele>28.9091</ele>
        <time>1970-01-01T01:00:00Z</time>
      </trkpt>
      <trkpt lat="59.021422" lon="18.148102">
        <ele>28.7273</ele>
        <time>1970-01-01T01:00:00Z</time>
      </trkpt>
      <trkpt lat="59.021357" lon="18.148234">
        <ele>28.2727</ele>
        <time>1970-01-01T01:00:00Z</time>
      </trkpt>
      <trkpt lat="59.021295" lon="18.1484">
        <ele>27.8182</ele>
        <time>1970-01-01T01:00:00Z</time>
      </trkpt>
      <trkpt lat="59.021198" lon="18.148523">
        <ele>27.3636</ele>
        <time>1970-01-01T01:00:00Z</time>
      </trkpt>
      <trkpt lat="59.021083" lon="18.148564">
        <ele>26.9091</ele>
        <time>1970-01-01T01:00:00Z</time>
      </trkpt>
      <trkpt lat="59.020956" lon="18.148599">
        <ele>26.4545</ele>
        <time>1970-01-01T01:00:00Z</time>
      </trkpt>
      <trkpt lat="59.020845" lon="18.148717">
        <ele>25.6364</ele>
        <time>1970-01-01T01:00:00Z</time>
      </trkpt>
      <trkpt lat="59.020749" lon="18.148866">
        <ele>24.8182</ele>
        <time>1970-01-01T01:00:00Z</time>
      </trkpt>
      <trkpt lat="59.020659" lon="18.149025">
        <ele>24</ele>
        <time>1970-01-01T01:00:00Z</time>
      </trkpt>
      <trkpt lat="59.020598" lon="18.149192">
        <ele>24</ele>
        <time>1970-01-01T01:00:00Z</time>
      </trkpt>
      <trkpt lat="59.020543" lon="18.149356">
        <ele>24</ele>
        <time>1970-01-01T01:00:00Z</time>
      </trkpt>
      <trkpt lat="59.020523" lon="18.149538">
        <ele>23.7273</ele>
        <time>1970-01-01T01:00:00Z</time>
      </trkpt>
      <trkpt lat="59.02051" lon="18.149724">
        <ele>23.4545</ele>
        <time>1970-01-01T01:00:00Z</time>
      </trkpt>
      <trkpt lat="59.020505" lon="18.149908">
        <ele>23.1818</ele>
        <time>1970-01-01T01:00:00Z</time>
      </trkpt>
      <trkpt lat="59.020548" lon="18.150083">
        <ele>22.9091</ele>
        <time>1970-01-01T01:00:00Z</time>
      </trkpt>
      <trkpt lat="59.02057" lon="18.15027">
        <ele>22.6364</ele>
        <time>1970-01-01T01:00:00Z</time>
      </trkpt>
      <trkpt lat="59.020558" lon="18.150483">
        <ele>22.0909</ele>
        <time>1970-01-01T01:00:00Z</time>
      </trkpt>
      <trkpt lat="59.020568" lon="18.150694">
        <ele>21.5455</ele>
        <time>1970-01-01T01:00:00Z</time>
      </trkpt>
      <trkpt lat="59.020601" lon="18.150881">
        <ele>21</ele>
        <time>1970-01-01T01:00:00Z</time>
      </trkpt>
      <trkpt lat="59.020658" lon="18.15109">
        <ele>20.4545</ele>
        <time>1970-01-01T01:00:00Z</time>
      </trkpt>
      <trkpt lat="59.020701" lon="18.151261">
        <ele>20.0909</ele>
        <time>1970-01-01T01:00:00Z</time>
      </trkpt>
      <trkpt lat="59.020729" lon="18.151433">
        <ele>19.7273</ele>
        <time>1970-01-01T01:00:00Z</time>
      </trkpt>
      <trkpt lat="59.020759" lon="18.151603">
        <ele>19.6364</ele>
        <time>1970-01-01T01:00:00Z</time>
      </trkpt>
      <trkpt lat="59.020799" lon="18.151786">
        <ele>19.5455</ele>
        <time>1970-01-01T01:00:00Z</time>
      </trkpt>
      <trkpt lat="59.02084" lon="18.15197">
        <ele>19.4545</ele>
        <time>1970-01-01T01:00:00Z</time>
      </trkpt>
      <trkpt lat="59.020895" lon="18.152142">
        <ele>19.3636</ele>
        <time>1970-01-01T01:00:00Z</time>
      </trkpt>
      <trkpt lat="59.020889" lon="18.152366">
        <ele>19.6364</ele>
        <time>1970-01-01T01:00:00Z</time>
      </trkpt>
      <trkpt lat="59.0208" lon="18.152504">
        <ele>20.1818</ele>
        <time>1970-01-01T01:00:00Z</time>
      </trkpt>
      <trkpt lat="59.020691" lon="18.152557">
        <ele>20.7273</ele>
        <time>1970-01-01T01:00:00Z</time>
      </trkpt>
      <trkpt lat="59.020574" lon="18.152603">
        <ele>21.2727</ele>
        <time>1970-01-01T01:00:00Z</time>
      </trkpt>
      <trkpt lat="59.020452" lon="18.152607">
        <ele>21.8182</ele>
        <time>1970-01-01T01:00:00Z</time>
      </trkpt>
      <trkpt lat="59.020359" lon="18.152599">
        <ele>22.1818</ele>
        <time>1970-01-01T01:00:00Z</time>
      </trkpt>
      <trkpt lat="59.020267" lon="18.152602">
        <ele>22.5455</ele>
        <time>1970-01-01T01:00:00Z</time>
      </trkpt>
      <trkpt lat="59.020151" lon="18.152638">
        <ele>22.9091</ele>
        <time>1970-01-01T01:00:00Z</time>
      </trkpt>
      <trkpt lat="59.020039" lon="18.152649">
        <ele>23.6364</ele>
        <time>1970-01-01T01:00:00Z</time>
      </trkpt>
      <trkpt lat="59.019929" lon="18.152651">
        <ele>24.3636</ele>
        <time>1970-01-01T01:00:00Z</time>
      </trkpt>
      <trkpt lat="59.019836" lon="18.152657">
        <ele>25.0909</ele>
        <time>1970-01-01T01:00:00Z</time>
      </trkpt>
      <trkpt lat="59.019737" lon="18.152672">
        <ele>25.4545</ele>
        <time>1970-01-01T01:00:00Z</time>
      </trkpt>
      <trkpt lat="59.019646" lon="18.152686">
        <ele>25.8182</ele>
        <time>1970-01-01T01:00:00Z</time>
      </trkpt>
      <trkpt lat="59.019535" lon="18.152703">
        <ele>26.1818</ele>
        <time>1970-01-01T01:00:00Z</time>
      </trkpt>
      <trkpt lat="59.019445" lon="18.152727">
        <ele>26.5455</ele>
        <time>1970-01-01T01:00:00Z</time>
      </trkpt>
      <trkpt lat="59.019351" lon="18.152753">
        <ele>26.9091</ele>
        <time>1970-01-01T01:00:00Z</time>
      </trkpt>
      <trkpt lat="59.019259" lon="18.152749">
        <ele>27.4545</ele>
        <time>1970-01-01T01:00:00Z</time>
      </trkpt>
      <trkpt lat="59.019158" lon="18.152768">
        <ele>28</ele>
        <time>1970-01-01T01:00:00Z</time>
      </trkpt>
      <trkpt lat="59.019046" lon="18.152801">
        <ele>28.5455</ele>
        <time>1970-01-01T01:00:00Z</time>
      </trkpt>
      <trkpt lat="59.018929" lon="18.15282">
        <ele>28.7273</ele>
        <time>1970-01-01T01:00:00Z</time>
      </trkpt>
      <trkpt lat="59.018823" lon="18.152816">
        <ele>28.9091</ele>
        <time>1970-01-01T01:00:00Z</time>
      </trkpt>
      <trkpt lat="59.018712" lon="18.152841">
        <ele>29.0909</ele>
        <time>1970-01-01T01:00:00Z</time>
      </trkpt>
      <trkpt lat="59.018602" lon="18.15287">
        <ele>29.2727</ele>
        <time>1970-01-01T01:00:00Z</time>
      </trkpt>
      <trkpt lat="59.018476" lon="18.15288">
        <ele>29.5455</ele>
        <time>1970-01-01T01:00:00Z</time>
      </trkpt>
      <trkpt lat="59.018375" lon="18.152877">
        <ele>29.7</ele>
        <time>1970-01-01T01:00:00Z</time>
      </trkpt>
      <trkpt lat="59.018278" lon="18.152886">
        <ele>29.8889</ele>
        <time>1970-01-01T01:00:00Z</time>
      </trkpt>
      <trkpt lat="59.018176" lon="18.152878">
        <ele>30.125</ele>
        <time>1970-01-01T01:00:00Z</time>
      </trkpt>
      <trkpt lat="59.018085" lon="18.152912">
        <ele>30.1429</ele>
        <time>1970-01-01T01:00:00Z</time>
      </trkpt>
      <trkpt lat="59.018013" lon="18.152977">
        <ele>30.1667</ele>
        <time>1970-01-01T01:00:00Z</time>
      </trkpt>
    </trkseg>
  </trk>
</gpx>